STARLINK-33583, 63503

Orbit data source: Space-Track

STARLINK-33583, 63503 is a payload satellite owned by SpaceX/Seattle (US) in LEO that was launched on Mon, 07 Apr 2025 UTC via an FALCON 9 launch vehicle from the Air Force Western Test Range (AFWTR). Payload-class satellites include a variety of spacecraft equipped with specific instruments for various scientific and technological missions. These include communications satellites like Starlink; space stations such as the ISS; scientific satellites like the Hubble; Earth observation satellites from companies like Planet Labs, Umbra, and HawkEye 360; GPS; miniature CubeSats for education and research; and military/defense satellites.

Not visible in the next 10 days
Identifier
63503, 2025-071L
Orbit
LEO
Last TLE update
5 days ago
Origin
Manufacturer
SpaceX/Seattle
Mission
Operational spacecraft
Bus & Motor
STARLINK V2MO, Unknown motor
Mass
575 kg wet, ~530 kg dry
Launch date (UTC)
2025-04-07 (3 weeks ago)
Launch vehicle
FALCON 9
Launch site
Air Force Western Test Range (AFWTR)
Object type
Payload
Rocket body
Debris
Shape & HBR
Unknown
Radar Cross Section
Large (>1 m²)

Expand to show TLE details & history

TLE from 5 days ago
0 STARLINK-33583
1 63503U 25071L   25115.33335648  .00149468  00000-0  10872-2 0  9993
2 63503  53.1592 185.4737 0000871  75.4012 236.6178 15.72392540  3930
Epoch: 2025-04-25T08:00Z
Definitive object data (Epoch: 2025-04-25T08:00:01.999Z)
Latitude
-36.69866°
Longitude
178.14326°
Altitude
364.193 km
Speed
7.69 km/s
True Right ascension
10h 06m 58s
True Declination
-36° 31' 28"
Sunlit
Object was in full shadow at TLE epoch
Visualization TLE readout
Latitude
-33.22427°
Longitude
35.9685°
Altitude
358.405 km
Speed
7.694 km/s
Apparent Right ascension
02h 43m 12s
Apparent Declination
-41° 29' 38"
Sunlit
Object is in daylight
Visualization observer readout
Local Sidereal Time
17:09:51
Azimuth
105.332° ESE
Elevation
-62.371°
Doppler factor
1
Orbital elements
Apogee altitude
352.909 km
Perigee altitude
351.736 km
Semi-major axis
6,730.459 km
Eccentricity
0.0000871
Inclination
53.1592°
RAAN
185.4737°
Arg. of periapsis
75.4012°
True anomaly
236.60947°
Mean anomaly
236.6178°
Eccentric anomaly
236.61363°
Mean motion
3.93076 °/min
BSTAR
0.0010872
Orbital period
91.59 mins
Loading maneuver chart data...
Loading SW <> Apogee altitude chart data...
Loading historical data...
Loading historical data...
Loading historical data...
Loading historical data...
Loading historical data...
Loading historical data...
Loading historical data...

STARLINK-33583 Visibility forecast

Observer location: undefined°, undefined°

STARLINK-33583 is not visible in the next 10 days
Span
Click to sort rows by Start time (UTC) header in descending order
Start Az.
Max El. time (UTC)
Max El. Az.
Max El.
End time (UTC)
End Az.
|